IUE

导读

IUE(国际紫外探测器)由美国联合欧洲空间局、英国科研机构共同研发,于1978年1月26日发射进入地球同步轨道,是人类首个专门的紫外天文空间望远镜。它原定服役3年,实际稳定运行18年至1996年才关机,期间完成超十万次观测,首次系统性获取太阳系行星、恒星、彗星及星系等天体的紫外光谱数据,更正了超新星前身星理论认知,揭示了银冕结构,大幅推动紫外天文学发展,其观测数据库至今仍在被学界使用。

基本信息
目录编号:
10637
目录名称:
IUE
国际标识:
1978-012A
轨道中心:
EARTH
卫星名称:
IUE
卫星全名:
--
卫星状态:
在轨 (已飞行17701 天)
发射日期:
1978-01-26 UTC
国别 :
美国 (US)
星等 :
--
轨道信息
数据来源 国际轨道数据
星历时间: 2026-07-13T21:02:34+0800
15小时前
查看轨道信息
半长轴: 42218.695km
偏心率: 0.1447885
轨道倾角: 36.699°
近地点辐角 268.149°
升交点赤经 288.043°
平近点角 71.902°
近地点: 29727.776km
远地点: 41953.34km
周期: 1438.855分钟
每日圈数: 1.000796
详细信息
使用方式:
暂无
2D轨道图
3D轨道图
轨道高度分析图
轨道倾角分析图
轨道综合分析图
查看轨道综合分析图